Regional Weather Roundup
Issued by NWS Kansas City/Pleasant Hill, MO

Home | Current Version | Previous Version | Graphics & Text | Print | Product List | Glossary Off
Versions: 1 2 3 4 5 6 7 8 9 10 11 12 13 14 15 16 17 18 19 20 21 22 23 24 25 26 27

000
ASUS43 KEAX 241010
RWREAX

WEATHER ROUNDUP FOR EASTERN KANSAS AND NORTHWEST MISSOURI
NATIONAL WEATHER SERVICE KANSAS CITY/PLEASANT HILL MO
500 AM CDT SUN JUL 24 2016

KSZ040-057-103>105-MOZ028-029-037-043-241100-
...KANSAS CITY METROPOLITAN AREA...

CITY           SKY/WX    TMP DP  RH WIND       PRES   REMARKS
K.C. INTL      PTCLDY    76  71  85 S8        29.88R
K.C. DOWNTOWN  CLEAR     84  71  65 S7        29.87R
LEES SUMMIT    CLEAR     82  73  74 S9        29.89S
OLATHE - IXD   CLEAR     78  72  81 S8        29.89S
OLATHE - OJC   CLEAR     77  71  82 S7        29.89S
LAWRENCE       CLEAR     75  71  87 CALM      29.88R

$$

MOZ001>008-011>017-020>025-030>033-038>040-044>046-053-054-241100-
...NORTHERN AND CENTRAL MISSOURI...

CITY           SKY/WX    TMP DP  RH WIND       PRES   REMARKS
ST. JOSEPH     PTCLDY    81  71  71 S12       29.83F
MOSBY          SUNNY     79  73  83 SE3       29.87S
WHITEMAN AFB   CLEAR     79  79 100 S7        29.89S FOG
CLINTON        CLEAR     79  73  83 S3        29.91S
SEDALIA        CLEAR     80  75  84 S8        29.91F
WARSAW         NOT AVBL
CHILLICOTHE      N/A     80  74  81 S3        29.88S
KIRKSVILLE     CLEAR     78  75  90 S7        29.90S

$$

MOZ041-047>049-056>058-063>065-088>090-097-241100-
...EASTERN AND SOUTHERN MISSOURI...

CITY           SKY/WX    TMP DP  RH WIND       PRES   REMARKS
ST. LOUIS INTL MOCLDY    82  74  76 S7        29.92F
SPIRIT OF STL  CLEAR     77  76  96 CALM      29.91S
COLUMBIA       CLEAR     78  74  87 S7        29.91F
JEFFERSON CITY CLEAR     79  74  84 SE5       29.90F
ROLLA          CLEAR     75  71  87 S9        29.94S
OSAGE BEACH    CLEAR     76  72  87 CALM      29.93F
SPRINGFIELD    CLEAR     77  72  84 S7        29.94F
BRANSON        CLOUDY    73  72  94 CALM      29.97S
JOPLIN         CLOUDY    78  71  79 S8        29.93R
WEST PLAINS    PTCLDY    73  69  87 CALM      29.98S

$$

IAZ060-094-KSZ022-034>040-054-083-096-NEZ052-066-093-241100-
...KANSAS...SOUTHEAST NEBRASKA AND IOWA...

CITY           SKY/WX    TMP DP  RH WIND       PRES   REMARKS
TOPEKA         MOCLDY    79  71  76 SW3       29.87R
MANHATTAN      TSTM      80  71  74 S7        29.87S
EMPORIA        PTCLDY    76  70  82 S8        29.88R
CHANUTE        PTCLDY    79  71  76 S9        29.89S
WICHITA        PTCLDY    77  68  73 SW5       29.91R
OMAHA          PTCLDY    79  73  82 NW8       29.83S
LINCOLN        CLEAR     77  73  87 N5        29.89R
FALLS CITY     CLOUDY    85  69  58 W12       29.82S
LAMONI         PTCLDY    78  75  90 S8        29.85F
DES MOINES     MOCLDY    81  75  82 SW7       29.82S

$$





USA.gov is the U.S. government's official web portal to all federal, state and local government web resources and services.